Location: Newark
(7.0858°N, 171.3717°E)
Time: 07:55:57
(UTC+00:00)

Courier 1B - Pass Details

Date: 05 December 2020
Orbit: 962 x 1209 km, 28.3° (Epoch: 20 January)

Event Time Altitude Azimuth Distance (km) Brightness Sun altitude
Rises 12:12:23 0° 317° (NW) 3,722 - -74.3°
Reaches altitude 10° 12:15:49 10° 333° (NNW) 2,812 - -74.5°
Maximum altitude 12:20:42 20° 19° (NNE) 2,218 - -74.6°
Drops below altitude 10° 12:25:46 10° 64° (ENE) 2,944 - -74.6°
Sets 12:29:28 0° 80° (E) 3,952 - -74.6°
